TimeCST,TemperatureF,Dew PointF,Humidity,Sea Level PressureIn,VisibilityMPH,Wind Direction,Wind SpeedMPH,Gust SpeedMPH,PrecipitationIn,Events,Conditions,WindDirDegrees,DateUTC
12:15 AM,8.6,3.2,79,30.33,10.0,West,5.8,-,N/A,,Clear,270,2011-12-10 06:15:00
12:35 AM,8.6,-0.4,67,30.33,10.0,West,5.8,-,N/A,,Clear,270,2011-12-10 06:35:00
12:55 AM,8.6,1.4,73,30.32,10.0,West,4.6,-,N/A,,Clear,280,2011-12-10 06:55:00
1:55 AM,8.6,6.8,92,30.33,10.0,West,5.8,-,N/A,,Clear,270,2011-12-10 07:55:00
2:15 AM,8.6,1.4,73,30.32,10.0,West,5.8,-,N/A,,Clear,270,2011-12-10 08:15:00
2:35 AM,8.6,-5.8,52,30.32,10.0,West,6.9,-,N/A,,Clear,270,2011-12-10 08:35:00
2:55 AM,8.6,-0.4,67,30.32,10.0,West,6.9,-,N/A,,Clear,270,2011-12-10 08:55:00
3:15 AM,8.6,6.8,92,30.32,10.0,West,6.9,-,N/A,,Clear,270,2011-12-10 09:15:00
3:35 AM,8.6,-0.4,67,30.32,10.0,West,8.1,-,N/A,,Clear,270,2011-12-10 09:35:00
3:55 AM,8.6,-7.6,48,30.33,10.0,West,5.8,-,N/A,,Clear,270,2011-12-10 09:55:00
4:15 AM,6.8,-2.2,67,30.33,10.0,West,5.8,-,N/A,,Clear,270,2011-12-10 10:15:00
4:35 AM,6.8,6.8,100,30.33,10.0,West,5.8,-,N/A,,Clear,270,2011-12-10 10:35:00
4:55 AM,6.8,3.2,85,30.33,10.0,West,5.8,-,N/A,,Clear,270,2011-12-10 10:55:00
5:15 AM,6.8,-2.2,67,30.34,10.0,West,5.8,-,N/A,,Clear,270,2011-12-10 11:15:00
5:35 AM,6.8,-0.4,72,30.34,10.0,West,4.6,-,N/A,,Clear,270,2011-12-10 11:35:00
5:55 AM,6.8,6.8,100,30.34,10.0,West,5.8,-,N/A,,Clear,270,2011-12-10 11:55:00
6:15 AM,8.6,3.2,79,30.34,10.0,West,3.5,-,N/A,,Clear,270,2011-12-10 12:15:00
6:35 AM,8.6,-4.0,57,30.34,10.0,West,5.8,-,N/A,,Partly Cloudy,270,2011-12-10 12:35:00
6:55 AM,8.6,-4.0,57,30.35,10.0,WSW,5.8,-,N/A,,Partly Cloudy,250,2011-12-10 12:55:00
7:55 AM,8.6,6.8,92,30.36,10.0,West,5.8,-,N/A,,Overcast,260,2011-12-10 13:55:00
8:15 AM,10.4,3.2,73,30.36,10.0,WSW,8.1,-,N/A,,Overcast,250,2011-12-10 14:15:00
8:35 AM,10.4,-0.4,62,30.37,10.0,WSW,8.1,-,N/A,,Overcast,250,2011-12-10 14:35:00
8:55 AM,10.4,-0.4,62,30.37,10.0,West,6.9,-,N/A,,Scattered Clouds,260,2011-12-10 14:55:00
9:15 AM,12.2,1.4,62,30.37,10.0,West,8.1,16.1,N/A,,Clear,270,2011-12-10 15:15:00
9:35 AM,14.0,6.8,73,30.37,10.0,West,9.2,-,N/A,,Clear,260,2011-12-10 15:35:00
9:55 AM,14.0,3.2,62,30.37,10.0,WSW,8.1,-,N/A,,Clear,240,2011-12-10 15:55:00
10:15 AM,15.8,1.4,53,30.37,10.0,West,12.7,17.3,N/A,,Partly Cloudy,260,2011-12-10 16:15:00
10:35 AM,17.6,1.4,49,30.36,10.0,SW,12.7,16.1,N/A,,Mostly Cloudy,230,2011-12-10 16:35:00
11:15 AM,17.6,1.4,49,30.34,10.0,SW,12.7,18.4,N/A,,Overcast,230,2011-12-10 17:15:00
11:35 AM,19.4,1.4,46,30.33,10.0,WSW,10.4,18.4,N/A,,Overcast,240,2011-12-10 17:35:00
11:55 AM,19.4,3.2,49,30.32,10.0,WSW,13.8,-,N/A,,Overcast,240,2011-12-10 17:55:00
12:15 PM,19.4,-0.4,42,30.32,10.0,WSW,10.4,17.3,N/A,,Overcast,240,2011-12-10 18:15:00
12:35 PM,19.4,-0.4,42,30.31,10.0,SW,13.8,-,N/A,,Overcast,230,2011-12-10 18:35:00
12:55 PM,19.4,-0.4,42,30.31,10.0,WSW,11.5,19.6,N/A,,Overcast,240,2011-12-10 18:55:00
1:15 PM,21.2,-0.4,39,30.30,10.0,WSW,9.2,17.3,N/A,,Overcast,240,2011-12-10 19:15:00
1:35 PM,21.2,-0.4,39,30.30,10.0,WSW,12.7,18.4,N/A,,Overcast,250,2011-12-10 19:35:00
1:55 PM,21.2,-0.4,39,30.29,10.0,WSW,6.9,19.6,N/A,,Overcast,240,2011-12-10 19:55:00
2:15 PM,21.2,-2.2,36,30.29,10.0,SW,10.4,16.1,N/A,,Overcast,230,2011-12-10 20:15:00
3:35 PM,21.2,1.4,42,30.27,10.0,SSW,11.5,-,N/A,,Overcast,210,2011-12-10 21:35:00
3:55 PM,21.2,3.2,46,30.27,10.0,SW,12.7,17.3,N/A,,Overcast,230,2011-12-10 21:55:00
4:15 PM,23.0,5.0,46,30.26,10.0,SW,10.4,-,N/A,,Overcast,220,2011-12-10 22:15:00
4:35 PM,23.0,5.0,46,30.25,10.0,SW,15.0,-,N/A,,Overcast,230,2011-12-10 22:35:00
4:55 PM,23.0,3.2,43,30.25,10.0,SW,13.8,17.3,N/A,,Overcast,220,2011-12-10 22:55:00
5:15 PM,23.0,5.0,46,30.25,10.0,SW,13.8,-,N/A,,Overcast,220,2011-12-10 23:15:00
5:35 PM,23.0,6.8,50,30.25,10.0,SW,12.7,18.4,N/A,,Scattered Clouds,230,2011-12-10 23:35:00
5:55 PM,24.8,8.6,50,30.24,10.0,SW,16.1,19.6,N/A,,Clear,230,2011-12-10 23:55:00
6:15 PM,24.8,8.6,50,30.24,10.0,SW,12.7,20.7,N/A,,Clear,230,2011-12-11 00:15:00
6:35 PM,24.8,6.8,46,30.23,10.0,SW,12.7,20.7,N/A,,Clear,230,2011-12-11 00:35:00
6:55 PM,24.8,8.6,50,30.23,10.0,SW,15.0,19.6,N/A,,Clear,230,2011-12-11 00:55:00
7:15 PM,24.8,12.2,59,30.22,10.0,SW,13.8,23.0,N/A,,Clear,230,2011-12-11 01:15:00
7:35 PM,24.8,12.2,59,30.23,10.0,SW,12.7,23.0,N/A,,Clear,230,2011-12-11 01:35:00
7:55 PM,24.8,10.4,54,30.23,10.0,WSW,10.4,18.4,N/A,,Clear,240,2011-12-11 01:55:00
8:15 PM,24.8,10.4,54,30.23,10.0,SW,12.7,23.0,N/A,,Clear,230,2011-12-11 02:15:00
8:35 PM,24.8,10.4,54,30.23,10.0,WSW,12.7,17.3,N/A,,Clear,240,2011-12-11 02:35:00
8:55 PM,24.8,8.6,50,30.23,10.0,WSW,10.4,17.3,N/A,,Clear,240,2011-12-11 02:55:00
9:15 PM,24.8,8.6,50,30.23,10.0,WSW,10.4,16.1,N/A,,Clear,250,2011-12-11 03:15:00
9:35 PM,24.8,10.4,54,30.23,10.0,WSW,6.9,16.1,N/A,,Clear,250,2011-12-11 03:35:00
9:55 PM,24.8,10.4,54,30.22,10.0,WSW,10.4,-,N/A,,Clear,240,2011-12-11 03:55:00
10:15 PM,23.0,12.2,63,30.23,10.0,WSW,8.1,-,N/A,,Clear,250,2011-12-11 04:15:00
10:35 PM,23.0,12.2,63,30.23,10.0,WSW,8.1,-,N/A,,Clear,250,2011-12-11 04:35:00
10:55 PM,23.0,10.4,59,30.23,10.0,WSW,6.9,-,N/A,,Clear,240,2011-12-11 04:55:00
11:55 PM,21.2,12.2,68,30.22,10.0,SW,8.1,-,N/A,,Clear,230,2011-12-11 05:55:00